Content
SEND FEEDBACK

Daily
Averages
Monthly
Summary
Sweden

GOTHENBURG, SWEDEN


Home > Europe > Sweden
Elevation: 174 feet     Latitude: 57 47N     Longitude: 011 53E

WEATHER
 
SELECT A DAY
Number of Records: 255,201;   Date Range: 2/20/97 - 9/22/14
 
SHARE

PRINT THIS DATA

[ ← Previous Day ]
WEATHER ALMANAC - JANUARY 31, 2013
[ Next Day → ]
[ °C ]   °F
Weather ElementAverageHighLow
Temperature36.6 °F42.8 °F (8:20 am)26.6 °F (9:20 pm)
Dewpoint33 °F39.2 °F (4:20 am)26.6 °F (7:50 pm)
Humidity87.1 %100 % (3:20 am)75 % (10:50 am)
Barometer29.10 in29.30 in (9:50 pm)28.85 in (3:50 am)
Wind Speed12.1 mph25.3 mph (8:50 am)
Wind Gust26.5 mph (9:20 am)
Weather ElementAverage
Visibility4.6 mi
Wind DirectionSSW (196.2 °)

Weather ElementTotal
Precipitation---
Heating Degree Days30.3 (Base 65)
Averaged from 42 records on January 31, 2013
WEATHER CONDITIONS BREAKOUT
WIND DIRECTION BREAKOUT
WEATHER BY HOUR - JANUARY 31, 2013
[ °C ]   °F
Local TimeTemperatureDewpointHumidityBarometerVisibilityWind DirectionWind SpeedGust SpeedPrecipitationEventsConditions
12:50 AM39.2 °F35.6 °F87 %28.94 in4.3 miSSW (200°)17.3 mphMostly Cloudy
1:20 AM39.2 °F35.6 °F87 %28.94 in3.1 miSSW (200°)19.6 mphOvercast
1:50 AM37.4 °F35.6 °F93 %28.91 in3.1 miSSW (200°)19.6 mphOvercast
2:20 AM37.4 °F35.6 °F93 %28.91 in1.4 miSSW (200°)17.3 mphRainLight Rain
2:50 AM37.4 °F35.6 °F93 %28.88 inSSW (200°)18.4 mphLight Drizzle
3:20 AM37.4 °F37.4 °F100 %28.88 in1.6 miSSW (200°)19.6 mphRainLight Rain
3:50 AM37.4 °F37.4 °F100 %28.85 inSSW (200°)17.3 mphDrizzle
4:20 AM39.2 °F39.2 °F100 %28.85 in5.0 miSSW (210°)15.0 mphOvercast
4:50 AM41.0 °F39.2 °F93 %28.85 in4.3 miWSW (240°)17.3 mphOvercast
5:20 AM41.0 °F39.2 °F93 %28.85 in3.7 miWSW (250°)18.4 mphOvercast
5:50 AM41.0 °F39.2 °F93 %28.85 in3.7 miWest (260°)18.4 mphOvercast
6:20 AM41.0 °F37.4 °F87 %28.88 in3.7 miWest (260°)21.9 mphOvercast
6:50 AM41.0 °F37.4 °F87 %28.88 in5.0 miWest (270°)17.3 mphMostly Cloudy
7:20 AM41.0 °F35.6 °F81 %28.91 inWest (280°)20.7 mphClear
7:50 AM41.0 °F35.6 °F81 %28.94 in6.2 miWNW (290°)19.6 mphMostly Cloudy
8:20 AM42.8 °F35.6 °F76 %28.97 in6.2 miWNW (290°)21.9 mphScattered Clouds
8:50 AM41.0 °F33.8 °F76 %29.00 inNW (310°)25.3 mphClear
9:20 AM39.2 °F33.8 °F81 %29.03 inNW (320°)13.8 mph26.5 mphClear
9:50 AM39.2 °F33.8 °F81 %29.09 in6.2 miNW (310°)12.7 mphMostly Cloudy
10:20 AM39.2 °F33.8 °F81 %29.12 in6.2 miWNW (300°)15.0 mphMostly Cloudy
10:50 AM39.2 °F32.0 °F75 %29.18 in6.2 miNW (310°)16.1 mphMostly Cloudy
11:20 AM41.0 °F33.8 °F76 %29.18 in6.2 miNW (310°)12.7 mphMostly Cloudy
11:50 AM41.0 °F33.8 °F76 %29.21 in6.2 miWest (280°)17.3 mphScattered Clouds
12:20 PM41.0 °F33.8 °F76 %29.21 inWest (280°)15.0 mphClear
12:50 PM39.2 °F33.8 °F81 %29.21 inWest (280°)11.5 mphClear
1:20 PM39.2 °F32.0 °F75 %29.24 in6.2 miWest (260°)11.5 mphMostly Cloudy
1:50 PM39.2 °F33.8 °F81 %29.24 in6.2 miWest (260°)10.4 mphMostly Cloudy
2:20 PM39.2 °F32.0 °F75 %29.24 in6.2 miWest (260°)10.4 mphOvercast
2:50 PM39.2 °F32.0 °F75 %29.24 in6.2 miWest (280°)10.4 mphOvercast
4:20 PM37.4 °F32.0 °F81 %29.24 inWSW (250°)4.6 mphClear
4:50 PM35.6 °F32.0 °F87 %29.24 inSW (220°)3.5 mphClear
6:20 PM32.0 °F30.2 °F93 %29.24 in5.6 miVariable1.2 mphPartly Cloudy
7:20 PM30.2 °F28.4 °F93 %29.24 in4.3 miSE (130°)3.5 mphMist
7:50 PM28.4 °F26.6 °F93 %29.27 in4.3 miCalmMist
8:20 PM28.4 °F26.6 °F93 %29.27 in3.1 miCalmMist
8:50 PM28.4 °F26.6 °F93 %29.27 in4.3 miEast (100°)3.5 mphMist
9:20 PM26.6 °F26.6 °F100 %29.27 in4.3 miVariable1.2 mphMist
9:50 PM28.4 °F26.6 °F93 %29.30 in4.3 miVariable2.3 mphMostly Cloudy
10:20 PM28.4 °F26.6 °F93 %29.30 in3.7 miCalmMostly Cloudy
10:50 PM28.4 °F26.6 °F93 %29.30 in3.7 miCalmScattered Clouds
11:20 PM28.4 °F26.6 °F93 %29.30 in3.7 miNNE (30°)4.6 mphScattered Clouds
11:50 PM26.6 °F26.6 °F100 %29.30 in4.3 miVariable2.3 mphMist
Hourly data recorded from ESGP, located miles away from Gothenburg, Sweden







STORIES FROM OUR PARTNERS